10-04-2022, 00:00:09,    331,    0.0,    3.3,   0.00,   0.00, 1015.7,   70.9, -999.0
10-04-2022, 00:00:19,    331,    0.0,    3.2,   0.00,   0.00, 1015.7,   70.8, -999.0
10-04-2022, 00:00:29,    330,    0.0,    3.2,   0.00,   0.00, 1015.7,   71.0, -999.0
10-04-2022, 00:00:39,    330,    0.0,    3.1,   0.00,   0.00, 1015.7,   70.6, -999.0
10-04-2022, 00:00:49,    330,    0.0,    3.1,   0.00,   0.00, 1015.7,   70.5, -999.0
10-04-2022, 00:00:59,    331,    0.0,    3.1,   0.00,   0.00, 1015.7,   70.7, -999.0
10-04-2022, 00:01:09,    331,    0.0,    3.1,   0.00,   0.00, 1015.7,   70.6, -999.0
10-04-2022, 00:01:18,    331,    0.0,    3.2,   0.00,   0.00, 1015.7,   70.6, -999.0
10-04-2022, 00:01:29,    331,    0.0,    3.2,   0.00,   0.00, 1015.7,   70.7, -999.0
10-04-2022, 00:01:39,    330,    0.0,    3.2,   0.00,   0.00, 1015.7,   70.7, -999.0
10-04-2022, 00:01:48,    330,    0.0,    3.2,   0.00,   0.00, 1015.7,   70.7, -999.0
10-04-2022, 00:01:58,    331,    0.0,    3.1,   0.00,   0.00, 1015.7,   70.8, -999.0
10-04-2022, 00:02:09,    331,    0.0,    3.1,   0.00,   0.00, 1015.7,   70.9, -999.0
10-04-2022, 00:02:18,    331,    0.0,    3.1,   0.00,   0.00, 1015.7,   70.9, -999.0
10-04-2022, 00:02:28,    331,    0.0,    3.1,   0.00,   0.00, 1015.7,   70.9, -999.0
10-04-2022, 00:02:38,    331,    0.0,    3.1,   0.00,   0.00, 1015.7,   71.0, -999.0
10-04-2022, 00:02:48,    331,    0.0,    3.1,   0.00,   0.00, 1015.7,   71.0, -999.0
10-04-2022, 00:02:58,    331,    0.0,    3.0,   0.00,   0.00, 1015.7,   70.9, -999.0
10-04-2022, 00:03:08,    330,    0.0,    3.1,   0.00,   0.00, 1015.7,   70.8, -999.0
10-04-2022, 00:03:18,    331,    0.0,    3.1,   0.00,   0.00, 1015.7,   70.5, -999.0
10-04-2022, 00:03:28,    330,    0.0,    3.1,   0.00,   0.00, 1015.6,   70.6, -999.0
10-04-2022, 00:03:38,    331,    0.0,    3.1,   0.00,   0.00, 1015.7,   70.6, -999.0
10-04-2022, 00:03:48,    330,    0.0,    3.2,   0.00,   0.00, 1015.7,   70.7, -999.0
10-04-2022, 00:03:58,    331,    0.0,    3.2,   0.00,   0.00, 1015.7,   70.6, -999.0
10-04-2022, 00:04:08,    331,    0.0,    3.2,   0.00,   0.00, 1015.7,   70.6, -999.0
10-04-2022, 00:04:18,    330,    0.0,    3.1,   0.00,   0.00, 1015.6,   70.6, -999.0
10-04-2022, 00:04:28,    331,    0.0,    3.1,   0.00,   0.00, 1015.7,   70.4, -999.0
10-04-2022, 00:04:38,    331,    0.0,    3.1,   0.00,   0.00, 1015.7,   70.5, -999.0
10-04-2022, 00:04:48,    330,    0.0,    3.2,   0.00,   0.00, 1015.7,   70.4, -999.0
10-04-2022, 00:04:57,    331,    0.0,    2.9,   0.00,   0.00, 1015.7,   70.5, -999.0
10-04-2022, 00:05:07,    331,    0.0,    3.1,   0.00,   0.00, 1015.7,   70.6, -999.0
10-04-2022, 00:05:18,    331,    0.0,    3.2,   0.00,   0.00, 1015.6,   70.6, -999.0
10-04-2022, 00:05:27,    331,    0.0,    3.1,   0.00,   0.00, 1015.6,   70.7, -999.0
10-04-2022, 00:05:37,    331,    0.0,    2.9,   0.00,   0.00, 1015.7,   70.8, -999.0
10-04-2022, 00:05:47,    330,    0.0,    3.0,   0.00,   0.00, 1015.6,   70.9, -999.0
10-04-2022, 00:05:57,    331,    0.0,    3.1,   0.00,   0.00, 1015.6,   71.0, -999.0
10-04-2022, 00:06:07,    331,    0.0,    3.1,   0.00,   0.00, 1015.6,   71.1, -999.0
10-04-2022, 00:06:17,    331,    0.0,    3.0,   0.00,   0.00, 1015.7,   71.0, -999.0
10-04-2022, 00:06:27,    331,    0.0,    3.0,   0.00,   0.00, 1015.6,   71.0, -999.0
10-04-2022, 00:06:37,    331,    0.0,    3.0,   0.00,   0.00, 1015.6,   70.9, -999.0
10-04-2022, 00:06:47,    331,    0.0,    3.0,   0.00,   0.00, 1015.6,   70.9, -999.0
10-04-2022, 00:06:57,    331,    0.0,    3.0,   0.00,   0.00, 1015.6,   71.0, -999.0
10-04-2022, 00:07:07,    332,    0.0,    3.0,   0.00,   0.00, 1015.6,   70.9, -999.0
10-04-2022, 00:07:17,    331,    0.0,    2.9,   0.00,   0.00, 1015.7,   70.9, -999.0
10-04-2022, 00:07:27,    330,    0.0,    2.9,   0.00,   0.00, 1015.7,   71.0, -999.0
10-04-2022, 00:07:37,    331,    0.0,    3.0,   0.00,   0.00, 1015.6,   71.0, -999.0
10-04-2022, 00:07:47,    331,    0.0,    3.0,   0.00,   0.00, 1015.6,   71.0, -999.0
10-04-2022, 00:07:57,    330,    0.0,    3.0,   0.00,   0.00, 1015.6,   70.9, -999.0
10-04-2022, 00:08:07,    330,    0.0,    2.9,   0.00,   0.00, 1015.6,   70.9, -999.0
10-04-2022, 00:08:16,    330,    0.0,    3.0,   0.00,   0.00, 1015.7,   71.1, -999.0
10-04-2022, 00:08:27,    331,    0.0,    3.0,   0.00,   0.00, 1015.7,   71.1, -999.0
10-04-2022, 00:08:36,    331,    0.0,    3.0,   0.00,   0.00, 1015.7,   71.0, -999.0
10-04-2022, 00:08:46,    331,    0.0,    3.0,   0.00,   0.00, 1015.7,   70.9, -999.0
10-04-2022, 00:08:57,    331,    0.0,    2.9,   0.00,   0.00, 1015.6,   70.9, -999.0
10-04-2022, 00:09:06,    330,    0.0,    2.9,   0.00,   0.00, 1015.7,   70.9, -999.0
10-04-2022, 00:09:16,    331,    0.0,    2.9,   0.00,   0.00, 1015.6,   71.0, -999.0
10-04-2022, 00:09:26,    330,    0.0,    2.9,   0.00,   0.00, 1015.6,   70.9, -999.0
10-04-2022, 00:09:36,    331,    0.0,    3.0,   0.00,   0.00, 1015.6,   71.0, -999.0
10-04-2022, 00:09:46,    331,    0.0,    2.9,   0.00,   0.00, 1015.7,   71.1, -999.0
10-04-2022, 00:09:56,    330,    0.0,    2.9,   0.00,   0.00, 1015.6,   71.0, -999.0
10-04-2022, 00:10:06,    331,    0.0,    3.0,   0.00,   0.00, 1015.6,   71.0, -999.0
10-04-2022, 00:10:16,    331,    0.0,    3.0,   0.00,   0.00, 1015.7,   71.1, -999.0
10-04-2022, 00:10:26,    331,    0.0,    3.0,   0.00,   0.00, 1015.7,   71.0, -999.0
10-04-2022, 00:10:36,    331,    0.0,    3.0,   0.00,   0.00, 1015.6,   70.8, -999.0
10-04-2022, 00:10:46,    330,    0.0,    2.9,   0.00,   0.00, 1015.6,   70.7, -999.0
10-04-2022, 00:10:56,    331,    0.0,    3.0,   0.00,   0.00, 1015.6,   70.7, -999.0
10-04-2022, 00:11:06,    331,    0.0,    3.0,   0.00,   0.00, 1015.6,   70.7, -999.0
10-04-2022, 00:11:16,    331,    0.0,    3.0,   0.00,   0.00, 1015.7,   70.7, -999.0
10-04-2022, 00:11:26,    331,    0.0,    3.0,   0.00,   0.00, 1015.6,   70.7, -999.0
10-04-2022, 00:11:36,    331,    0.0,    3.0,   0.00,   0.00, 1015.6,   70.8, -999.0
10-04-2022, 00:11:46,    331,    0.0,    3.0,   0.00,   0.00, 1015.6,   70.6, -999.0
10-04-2022, 00:11:55,    331,    0.0,    3.1,   0.00,   0.00, 1015.6,   70.6, -999.0
10-04-2022, 00:12:06,    331,    0.0,    3.1,   0.00,   0.00, 1015.6,   70.6, -999.0
10-04-2022, 00:12:16,    330,    0.0,    3.1,   0.00,   0.00, 1015.6,   70.2, -999.0
10-04-2022, 00:12:25,    331,    0.0,    3.1,   0.00,   0.00, 1015.6,   70.0, -999.0
10-04-2022, 00:12:35,    330,    0.0,    3.2,   0.00,   0.00, 1015.6,   69.9, -999.0
10-04-2022, 00:12:45,    331,    0.0,    3.2,   0.00,   0.00, 1015.6,   69.6, -999.0
10-04-2022, 00:12:55,    331,    0.0,    3.3,   0.00,   0.00, 1015.6,   69.3, -999.0
10-04-2022, 00:13:05,    331,    0.0,    3.3,   0.00,   0.00, 1015.6,   69.0, -999.0
10-04-2022, 00:13:15,    331,    0.0,    3.3,   0.00,   0.00, 1015.7,   69.1, -999.0
10-04-2022, 00:13:25,    331,    0.0,    3.3,   0.00,   0.00, 1015.6,   68.9, -999.0
10-04-2022, 00:13:35,    331,    0.0,    3.3,   0.00,   0.00, 1015.6,   68.9, -999.0
10-04-2022, 00:13:45,    331,    0.0,    3.3,   0.00,   0.00, 1015.6,   68.9, -999.0
10-04-2022, 00:13:55,    331,    0.0,    3.3,   0.00,   0.00, 1015.7,   68.8, -999.0
10-04-2022, 00:14:05,    330,    0.0,    3.3,   0.00,   0.00, 1015.6,   68.8, -999.0
10-04-2022, 00:14:15,    331,    0.0,    3.3,   0.00,   0.00, 1015.6,   68.8, -999.0
10-04-2022, 00:14:25,    330,    0.0,    3.3,   0.00,   0.00, 1015.7,   68.9, -999.0
10-04-2022, 00:14:35,    331,    0.0,    3.3,   0.00,   0.00, 1015.7,   69.0, -999.0
10-04-2022, 00:14:45,    331,    0.0,    3.3,   0.00,   0.00, 1015.6,   69.0, -999.0
10-04-2022, 00:14:55,    331,    0.0,    3.3,   0.00,   0.00, 1015.6,   69.0, -999.0
10-04-2022, 00:15:04,    331,    0.0,    3.3,   0.00,   0.00, 1015.7,   69.0, -999.0
10-04-2022, 00:15:15,    331,    0.0,    3.3,   0.00,   0.00, 1015.6,   69.0, -999.0
10-04-2022, 00:15:25,    331,    0.0,    3.2,   0.00,   0.00, 1015.7,   69.1, -999.0
10-04-2022, 00:15:34,    330,    0.0,    3.2,   0.00,   0.00, 1015.6,   69.1, -999.0
10-04-2022, 00:15:44,    331,    0.0,    3.3,   0.00,   0.00, 1015.6,   69.0, -999.0
10-04-2022, 00:15:55,    331,    0.0,    3.3,   0.00,   0.00, 1015.6,   68.9, -999.0
10-04-2022, 00:16:04,    330,    0.0,    3.3,   0.00,   0.00, 1015.7,   68.9, -999.0
10-04-2022, 00:16:14,    331,    0.0,    3.3,   0.00,   0.00, 1015.6,   68.8, -999.0
10-04-2022, 00:16:24,    330,    0.0,    3.3,   0.00,   0.00, 1015.6,   68.6, -999.0
10-04-2022, 00:16:34,    331,    0.0,    3.3,   0.00,   0.00, 1015.7,   68.6, -999.0
10-04-2022, 00:16:44,    331,    0.0,    3.3,   0.00,   0.00, 1015.7,   68.7, -999.0
10-04-2022, 00:16:54,    330,    0.0,    3.3,   0.00,   0.00, 1015.7,   68.5, -999.0
10-04-2022, 00:17:04,    331,    0.0,    3.2,   0.00,   0.00, 1015.7,   68.3, -999.0
10-04-2022, 00:17:14,    331,    0.0,    3.3,   0.00,   0.00, 1015.7,   68.4, -999.0
10-04-2022, 00:17:24,    331,    0.0,    3.3,   0.00,   0.00, 1015.7,   68.2, -999.0
10-04-2022, 00:17:34,    331,    0.0,    3.3,   0.00,   0.00, 1015.7,   68.3, -999.0
10-04-2022, 00:17:44,    331,    0.0,    3.3,   0.00,   0.00, 1015.7,   68.3, -999.0
10-04-2022, 00:17:54,    331,    0.0,    3.3,   0.00,   0.00, 1015.7,   68.3, -999.0
10-04-2022, 00:18:04,    331,    0.0,    3.3,   0.00,   0.00, 1015.7,   68.3, -999.0
10-04-2022, 00:18:14,    331,    0.0,    3.3,   0.00,   0.00, 1015.7,   68.5, -999.0
10-04-2022, 00:18:24,    331,    0.0,    3.1,   0.00,   0.00, 1015.7,   68.7, -999.0
10-04-2022, 00:18:34,    331,    0.0,    3.3,   0.00,   0.00, 1015.7,   68.9, -999.0
10-04-2022, 00:18:43,    331,    0.0,    3.3,   0.00,   0.00, 1015.7,   68.9, -999.0
10-04-2022, 00:18:53,    331,    0.0,    3.2,   0.00,   0.00, 1015.7,   69.1, -999.0
10-04-2022, 00:19:04,    330,    0.0,    3.3,   0.00,   0.00, 1015.7,   69.0, -999.0
10-04-2022, 00:19:13,    331,    0.0,    3.3,   0.00,   0.00, 1015.7,   68.9, -999.0
10-04-2022, 00:19:23,    331,    0.0,    3.3,   0.00,   0.00, 1015.7,   69.0, -999.0
10-04-2022, 00:19:33,    330,    0.0,    3.2,   0.00,   0.00, 1015.7,   69.0, -999.0
10-04-2022, 00:19:43,    330,    0.0,    3.2,   0.00,   0.00, 1015.7,   69.2, -999.0
10-04-2022, 00:19:53,    331,    0.0,    3.2,   0.00,   0.00, 1015.7,   69.3, -999.0
10-04-2022, 00:20:03,    331,    0.0,    3.1,   0.00,   0.00, 1015.7,   69.2, -999.0
10-04-2022, 00:20:13,    331,    0.0,    3.3,   0.00,   0.00, 1015.7,   69.3, -999.0
10-04-2022, 00:20:23,    331,    0.0,    3.2,   0.00,   0.00, 1015.7,   69.4, -999.0
10-04-2022, 00:20:33,    330,    0.0,    3.3,   0.00,   0.00, 1015.7,   69.4, -999.0
10-04-2022, 00:20:43,    331,    0.0,    3.1,   0.00,   0.00, 1015.7,   69.4, -999.0
10-04-2022, 00:20:53,    331,    0.0,    3.1,   0.00,   0.00, 1015.7,   69.3, -999.0
10-04-2022, 00:21:03,    331,    0.0,    3.2,   0.00,   0.00, 1015.7,   69.4, -999.0
10-04-2022, 00:21:13,    332,    0.0,    3.2,   0.00,   0.00, 1015.7,   69.5, -999.0
10-04-2022, 00:21:23,    330,    0.0,    3.2,   0.00,   0.00, 1015.7,   69.6, -999.0
10-04-2022, 00:21:33,    331,    0.0,    3.2,   0.00,   0.00, 1015.7,   69.4, -999.0
10-04-2022, 00:21:43,    331,    0.0,    3.1,   0.00,   0.00, 1015.7,   69.6, -999.0
10-04-2022, 00:21:53,    331,    0.0,    3.2,   0.00,   0.00, 1015.7,   69.5, -999.0
10-04-2022, 00:22:02,    331,    0.0,    3.2,   0.00,   0.00, 1015.7,   69.5, -999.0
10-04-2022, 00:22:13,    331,    0.0,    3.1,   0.00,   0.00, 1015.7,   69.4, -999.0
10-04-2022, 00:22:22,    331,    0.0,    3.1,   0.00,   0.00, 1015.7,   69.5, -999.0
10-04-2022, 00:22:32,    331,    0.0,    3.1,   0.00,   0.00, 1015.7,   69.6, -999.0
10-04-2022, 00:22:43,    331,    0.0,    3.1,   0.00,   0.00, 1015.7,   69.6, -999.0
10-04-2022, 00:22:52,    331,    0.0,    3.2,   0.00,   0.00, 1015.7,   69.7, -999.0
10-04-2022, 00:23:12,    330,    0.0,    3.2,   0.00,   0.00, 1015.7,   69.9, -999.0
10-04-2022, 00:23:22,    331,    0.0,    3.0,   0.00,   0.00, 1015.7,   69.9, -999.0
10-04-2022, 00:23:32,    331,    0.0,    3.2,   0.00,   0.00, 1015.7,   69.9, -999.0
10-04-2022, 00:23:42,    331,    0.0,    3.1,   0.00,   0.00, 1015.7,   69.9, -999.0
10-04-2022, 00:23:52,    330,    0.0,    3.1,   0.00,   0.00, 1015.7,   69.9, -999.0
10-04-2022, 00:24:02,    331,    0.0,    3.0,   0.00,   0.00, 1015.7,   70.0, -999.0
10-04-2022, 00:24:12,    331,    0.0,    3.1,   0.00,   0.00, 1015.7,   69.8, -999.0
10-04-2022, 00:24:22,    331,    0.0,    3.1,   0.00,   0.00, 1015.8,   69.9, -999.0
10-04-2022, 00:24:32,    331,    0.0,    3.1,   0.00,   0.00, 1015.7,   69.9, -999.0
10-04-2022, 00:24:42,    331,    0.0,    3.1,   0.00,   0.00, 1015.7,   69.9, -999.0
10-04-2022, 00:24:52,    331,    0.0,    3.1,   0.00,   0.00, 1015.7,   69.8, -999.0
10-04-2022, 00:25:02,    331,    0.0,    3.1,   0.00,   0.00, 1015.7,   70.0, -999.0
10-04-2022, 00:25:12,    331,    0.0,    3.1,   0.00,   0.00, 1015.7,   70.0, -999.0
10-04-2022, 00:25:22,    331,    0.0,    3.1,   0.00,   0.00, 1015.7,   70.0, -999.0
10-04-2022, 00:25:32,    331,    0.0,    2.9,   0.00,   0.00, 1015.7,   69.9, -999.0
10-04-2022, 00:25:41,    331,    0.0,    3.0,   0.00,   0.00, 1015.7,   70.0, -999.0
10-04-2022, 00:25:52,    331,    0.0,    3.1,   0.00,   0.00, 1015.7,   70.1, -999.0
10-04-2022, 00:26:02,    331,    0.0,    3.0,   0.00,   0.00, 1015.7,   70.2, -999.0
10-04-2022, 00:26:11,    331,    0.0,    3.0,   0.00,   0.00, 1015.7,   70.0, -999.0
10-04-2022, 00:26:21,    331,    0.0,    3.0,   0.00,   0.00, 1015.7,   70.1, -999.0
10-04-2022, 00:26:31,    331,    0.0,    3.0,   0.00,   0.00, 1015.7,   70.0, -999.0
10-04-2022, 00:26:41,    331,    0.0,    3.0,   0.00,   0.00, 1015.7,   70.0, -999.0
10-04-2022, 00:26:51,    331,    0.0,    3.1,   0.00,   0.00, 1015.7,   69.9, -999.0
10-04-2022, 00:27:01,    330,    0.0,    3.0,   0.00,   0.00, 1015.7,   69.8, -999.0
10-04-2022, 00:27:11,    330,    0.0,    3.0,   0.00,   0.00, 1015.7,   70.0, -999.0
10-04-2022, 00:27:21,    330,    0.0,    3.0,   0.00,   0.00, 1015.7,   69.9, -999.0
10-04-2022, 00:27:31,    331,    0.0,    3.0,   0.00,   0.00, 1015.7,   70.1, -999.0
10-04-2022, 00:27:41,    331,    0.0,    3.1,   0.00,   0.00, 1015.7,   70.2, -999.0
10-04-2022, 00:27:51,    331,    0.0,    3.0,   0.00,   0.00, 1015.7,   70.4, -999.0
10-04-2022, 00:28:01,    330,    0.0,    3.1,   0.00,   0.00, 1015.7,   70.3, -999.0
10-04-2022, 00:28:11,    330,    0.0,    3.1,   0.00,   0.00, 1015.7,   70.3, -999.0
10-04-2022, 00:28:21,    331,    0.0,    3.0,   0.00,   0.00, 1015.7,   70.2, -999.0
10-04-2022, 00:28:31,    330,    0.0,    3.2,   0.00,   0.00, 1015.7,   70.0, -999.0
10-04-2022, 00:28:41,    331,    0.0,    3.1,   0.00,   0.00, 1015.7,   69.8, -999.0
10-04-2022, 00:28:50,    331,    0.0,    3.1,   0.00,   0.00, 1015.7,   70.0, -999.0
10-04-2022, 00:29:01,    330,    0.0,    3.1,   0.00,   0.00, 1015.7,   70.0, -999.0
10-04-2022, 00:29:11,    331,    0.0,    2.9,   0.00,   0.00, 1015.7,   69.8, -999.0
10-04-2022, 00:29:20,    330,    0.0,    3.1,   0.00,   0.00, 1015.7,   69.9, -999.0
10-04-2022, 00:29:31,    331,    0.0,    3.1,   0.00,   0.00, 1015.7,   69.8, -999.0
10-04-2022, 00:29:40,    331,    0.0,    3.1,   0.00,   0.00, 1015.7,   69.8, -999.0
10-04-2022, 00:29:50,    331,    0.0,    3.1,   0.00,   0.00, 1015.7,   69.6, -999.0
10-04-2022, 00:30:00,    331,    0.0,    3.0,   0.00,   0.00, 1015.7,   69.6, -999.0
10-04-2022, 00:30:10,    331,    0.0,    3.1,   0.00,   0.00, 1015.7,   69.7, -999.0
10-04-2022, 00:30:20,    331,    0.0,    3.1,   0.00,   0.00, 1015.7,   69.6, -999.0
10-04-2022, 00:30:30,    331,    0.0,    3.1,   0.00,   0.00, 1015.7,   69.9, -999.0
10-04-2022, 00:30:40,    331,    0.0,    3.1,   0.00,   0.00, 1015.7,   69.6, -999.0
10-04-2022, 00:30:50,    330,    0.0,    3.0,   0.00,   0.00, 1015.7,   69.8, -999.0
10-04-2022, 00:31:00,    331,    0.0,    3.1,   0.00,   0.00, 1015.7,   69.7, -999.0
10-04-2022, 00:31:10,    331,    0.0,    3.1,   0.00,   0.00, 1015.7,   69.3, -999.0
10-04-2022, 00:31:20,    330,    0.0,    3.2,   0.00,   0.00, 1015.7,   69.2, -999.0
10-04-2022, 00:31:30,    330,    0.0,    3.1,   0.00,   0.00, 1015.7,   69.1, -999.0
10-04-2022, 00:31:40,    331,    0.0,    3.1,   0.00,   0.00, 1015.7,   69.1, -999.0
10-04-2022, 00:31:50,    331,    0.0,    3.2,   0.00,   0.00, 1015.7,   69.0, -999.0
10-04-2022, 00:32:00,    331,    0.0,    3.2,   0.00,   0.00, 1015.7,   69.4, -999.0
10-04-2022, 00:32:10,    331,    0.0,    3.2,   0.00,   0.00, 1015.7,   69.3, -999.0
10-04-2022, 00:32:20,    331,    0.0,    3.1,   0.00,   0.00, 1015.7,   69.2, -999.0
10-04-2022, 00:32:29,    331,    0.0,    3.0,   0.00,   0.00, 1015.7,   69.1, -999.0
10-04-2022, 00:32:40,    331,    0.0,    3.1,   0.00,   0.00, 1015.7,   69.3, -999.0
10-04-2022, 00:32:50,    330,    0.0,    3.2,   0.00,   0.00, 1015.7,   69.2, -999.0
10-04-2022, 00:32:59,    331,    0.0,    3.2,   0.00,   0.00, 1015.7,   69.4, -999.0
10-04-2022, 00:33:09,    331,    0.0,    3.2,   0.00,   0.00, 1015.6,   69.3, -999.0
10-04-2022, 00:33:19,    330,    0.0,    3.2,   0.00,   0.00, 1015.7,   69.3, -999.0
10-04-2022, 00:33:29,    331,    0.0,    3.2,   0.00,   0.00, 1015.7,   69.3, -999.0
10-04-2022, 00:33:39,    331,    0.0,    3.2,   0.00,   0.00, 1015.7,   69.2, -999.0
10-04-2022, 00:33:49,    331,    0.0,    3.0,   0.00,   0.00, 1015.7,   69.3, -999.0
10-04-2022, 00:33:59,    331,    0.0,    3.1,   0.00,   0.00, 1015.7,   69.4, -999.0
10-04-2022, 00:34:09,    330,    0.0,    3.1,   0.00,   0.00, 1015.7,   69.7, -999.0
10-04-2022, 00:34:19,    331,    0.0,    3.1,   0.00,   0.00, 1015.6,   69.7, -999.0
10-04-2022, 00:34:29,    331,    0.0,    3.1,   0.00,   0.00, 1015.7,   69.7, -999.0
10-04-2022, 00:34:39,    331,    0.0,    3.1,   0.00,   0.00, 1015.7,   69.8, -999.0
10-04-2022, 00:34:49,    330,    0.0,    3.1,   0.00,   0.00, 1015.7,   69.9, -999.0
10-04-2022, 00:34:59,    331,    0.0,    3.0,   0.00,   0.00, 1015.7,   69.9, -999.0
10-04-2022, 00:35:09,    330,    0.0,    3.0,   0.00,   0.00, 1015.7,   70.0, -999.0
10-04-2022, 00:35:19,    331,    0.0,    3.0,   0.00,   0.00, 1015.6,   70.0, -999.0
10-04-2022, 00:35:29,    330,    0.0,    2.9,   0.00,   0.00, 1015.6,   70.1, -999.0
10-04-2022, 00:35:38,    331,    0.0,    2.9,   0.00,   0.00, 1015.7,   70.1, -999.0
10-04-2022, 00:35:49,    330,    0.0,    3.0,   0.00,   0.00, 1015.7,   70.0, -999.0
10-04-2022, 00:35:59,    330,    0.0,    3.0,   0.00,   0.00, 1015.7,   70.1, -999.0
10-04-2022, 00:36:08,    331,    0.0,    2.9,   0.00,   0.00, 1015.7,   70.0, -999.0
10-04-2022, 00:36:19,    331,    0.0,    2.9,   0.00,   0.00, 1015.7,   70.1, -999.0
10-04-2022, 00:36:29,    331,    0.0,    2.9,   0.00,   0.00, 1015.7,   70.3, -999.0
10-04-2022, 00:36:38,    331,    0.0,    3.0,   0.00,   0.00, 1015.7,   70.5, -999.0
10-04-2022, 00:36:48,    331,    0.0,    2.9,   0.00,   0.00, 1015.7,   70.4, -999.0
10-04-2022, 00:36:58,    331,    0.0,    2.9,   0.00,   0.00, 1015.7,   70.5, -999.0
10-04-2022, 00:37:08,    330,    0.0,    2.8,   0.00,   0.00, 1015.7,   70.5, -999.0
10-04-2022, 00:37:18,    331,    0.0,    2.9,   0.00,   0.00, 1015.7,   70.7, -999.0
10-04-2022, 00:37:28,    331,    0.0,    2.9,   0.00,   0.00, 1015.6,   70.7, -999.0
10-04-2022, 00:37:38,    331,    0.0,    2.9,   0.00,   0.00, 1015.7,   70.7, -999.0
10-04-2022, 00:37:48,    331,    0.0,    2.9,   0.00,   0.00, 1015.7,   70.8, -999.0
10-04-2022, 00:37:58,    331,    0.0,    2.9,   0.00,   0.00, 1015.7,   70.7, -999.0
10-04-2022, 00:38:08,    330,    0.0,    2.9,   0.00,   0.00, 1015.7,   70.7, -999.0
10-04-2022, 00:38:18,    331,    0.0,    2.9,   0.00,   0.00, 1015.7,   70.8, -999.0
10-04-2022, 00:38:28,    331,    0.0,    2.8,   0.00,   0.00, 1015.7,   70.9, -999.0
10-04-2022, 00:38:38,    331,    0.0,    2.9,   0.00,   0.00, 1015.7,   71.0, -999.0
10-04-2022, 00:38:48,    331,    0.0,    2.7,   0.00,   0.00, 1015.6,   71.1, -999.0
10-04-2022, 00:38:58,    331,    0.0,    2.8,   0.00,   0.00, 1015.7,   71.1, -999.0
10-04-2022, 00:39:08,    331,    0.0,    2.8,   0.00,   0.00, 1015.7,   70.9, -999.0
10-04-2022, 00:39:17,    331,    0.0,    2.8,   0.00,   0.00, 1015.7,   71.0, -999.0
10-04-2022, 00:39:28,    330,    0.0,    2.7,   0.00,   0.00, 1015.6,   71.0, -999.0
10-04-2022, 00:39:38,    331,    0.0,    2.7,   0.00,   0.00, 1015.7,   70.8, -999.0
10-04-2022, 00:39:47,    330,    0.0,    2.7,   0.00,   0.00, 1015.7,   71.0, -999.0
10-04-2022, 00:39:57,    330,    0.0,    2.8,   0.00,   0.00, 1015.7,   71.1, -999.0
10-04-2022, 00:40:08,    330,    0.0,    2.7,   0.00,   0.00, 1015.7,   71.2, -999.0
10-04-2022, 00:40:17,    331,    0.0,    2.7,   0.00,   0.00, 1015.7,   71.2, -999.0
10-04-2022, 00:40:27,    331,    0.0,    2.7,   0.00,   0.00, 1015.7,   71.2, -999.0
10-04-2022, 00:40:37,    331,    0.0,    2.7,   0.00,   0.00, 1015.7,   71.4, -999.0
10-04-2022, 00:40:47,    331,    0.0,    2.7,   0.00,   0.00, 1015.7,   71.5, -999.0
10-04-2022, 00:40:57,    331,    0.0,    2.7,   0.00,   0.00, 1015.7,   71.3, -999.0
10-04-2022, 00:41:07,    331,    0.0,    2.7,   0.00,   0.00, 1015.7,   71.3, -999.0
10-04-2022, 00:41:17,    331,    0.0,    2.7,   0.00,   0.00, 1015.7,   71.3, -999.0
10-04-2022, 00:41:27,    331,    0.0,    2.7,   0.00,   0.00, 1015.7,   71.2, -999.0
10-04-2022, 00:41:37,    331,    0.0,    2.7,   0.00,   0.00, 1015.6,   71.1, -999.0
10-04-2022, 00:41:47,    330,    0.0,    2.6,   0.00,   0.00, 1015.7,   71.2, -999.0
10-04-2022, 00:41:57,    331,    0.0,    2.6,   0.00,   0.00, 1015.7,   71.3, -999.0
10-04-2022, 00:42:07,    331,    0.0,    2.7,   0.00,   0.00, 1015.7,   71.3, -999.0
10-04-2022, 00:42:17,    330,    0.0,    2.7,   0.00,   0.00, 1015.7,   71.5, -999.0
10-04-2022, 00:42:26,    332,    0.0,    2.7,   0.00,   0.00, 1015.7,   71.4, -999.0
10-04-2022, 00:42:37,    330,    0.0,    2.7,   0.00,   0.00, 1015.7,   71.4, -999.0
10-04-2022, 00:42:47,    331,    0.0,    2.7,   0.00,   0.00, 1015.7,   71.8, -999.0
10-04-2022, 00:42:56,    330,    0.0,    2.6,   0.00,   0.00, 1015.6,   71.5, -999.0
10-04-2022, 00:43:07,    331,    0.0,    2.6,   0.00,   0.00, 1015.7,   71.7, -999.0
10-04-2022, 00:43:17,    331,    0.0,    2.7,   0.00,   0.00, 1015.7,   71.4, -999.0
10-04-2022, 00:43:26,    330,    0.0,    2.7,   0.00,   0.00, 1015.7,   71.5, -999.0
10-04-2022, 00:43:36,    330,    0.0,    2.7,   0.00,   0.00, 1015.7,   71.6, -999.0
10-04-2022, 00:43:47,    331,    0.0,    2.7,   0.00,   0.00, 1015.7,   71.5, -999.0
10-04-2022, 00:43:56,    331,    0.0,    2.7,   0.00,   0.00, 1015.7,   71.4, -999.0
10-04-2022, 00:44:06,    331,    0.0,    2.7,   0.00,   0.00, 1015.7,   71.4, -999.0
10-04-2022, 00:44:16,    331,    0.0,    2.7,   0.00,   0.00, 1015.7,   71.5, -999.0
10-04-2022, 00:44:26,    331,    0.0,    2.7,   0.00,   0.00, 1015.6,   71.4, -999.0
10-04-2022, 00:44:36,    331,    0.0,    2.6,   0.00,   0.00, 1015.6,   71.4, -999.0
10-04-2022, 00:44:46,    331,    0.0,    2.7,   0.00,   0.00, 1015.6,   71.5, -999.0
10-04-2022, 00:44:56,    330,    0.0,    2.6,   0.00,   0.00, 1015.7,   71.6, -999.0
10-04-2022, 00:45:06,    331,    0.0,    2.6,   0.00,   0.00, 1015.7,   71.6, -999.0
10-04-2022, 00:45:16,    331,    0.0,    2.7,   0.00,   0.00, 1015.7,   71.6, -999.0
10-04-2022, 00:45:26,    331,    0.0,    2.7,   0.00,   0.00, 1015.7,   71.6, -999.0
10-04-2022, 00:45:36,    331,    0.0,    2.6,   0.00,   0.00, 1015.6,   71.6, -999.0
10-04-2022, 00:45:46,    330,    0.0,    2.7,   0.00,   0.00, 1015.7,   71.6, -999.0
10-04-2022, 00:45:56,    331,    0.0,    2.7,   0.00,   0.00, 1015.7,   71.5, -999.0
10-04-2022, 00:46:06,    331,    0.0,    2.7,   0.00,   0.00, 1015.6,   71.7, -999.0
10-04-2022, 00:46:16,    331,    0.0,    2.7,   0.00,   0.00, 1015.7,   71.7, -999.0
10-04-2022, 00:46:26,    331,    0.0,    2.7,   0.00,   0.00, 1015.6,   71.6, -999.0
10-04-2022, 00:46:35,    331,    0.0,    2.7,   0.00,   0.00, 1015.7,   71.7, -999.0
10-04-2022, 00:46:45,    331,    0.0,    2.7,   0.00,   0.00, 1015.7,   71.7, -999.0
10-04-2022, 00:46:56,    331,    0.0,    2.6,   0.00,   0.00, 1015.6,   71.7, -999.0